Aérodrome :
LOGIN :

S'inscrire | Disclaimer

   EN    FR    IT 

 










Légende :    VFR   VFR Marginal   IFR   IFR Intensif   IFR Très Intensif
Visi : 
Plafond : 
>= 8 km
>= 3000ft
5 à 8 km
1000 à 3000 ft
1500m à 5 km
500 à 1000 ft
800 à 1500m
200 à 500 ft
< 800m
< 200 ft
Symboles :   Orages  Brouillard  Fortes neiges  Fortes précipitations  Vent > 20 kt
SIGMETs :   Divers  Orages  Givrage  Turbulence  Onde Orograph.  Cendres Volcan.







- Altitude de l'aérodrome : 49 ft
- Code IATA : SEN
- Voir les cartes d'approche


EGMC - Southend

DERNIER METAR :
  • 230750Z 25011KT 220V280 9999 FEW030 18/10 Q1015

METARs EXPIRÉS :
  • 230720Z 25011KT 9999 FEW030 17/10 Q1015
  • 230650Z 25011KT 230V290 9999 FEW022 17/12 Q1015
  • 230620Z 26010KT 230V290 9999 FEW016 15/10 Q1015
  • 230550Z 26007KT 9999 FEW020 14/09 Q1015
  • 230520Z 25007KT 9999 FEW020 15/11 Q1015

TAF TAF EGMC
Valide du 23 à 06h jusqu'au 23 à 15h UTC


230456Z 2306/2315 25010KT 9999 FEW020
Pas de NOTAMs connus pour ce terrain.



MET'MAP, la Météo Aéronautique d'un coup d'oeil ! - Copyright ORBIFLY Décembre 2007 - Disclaimer

ORBIFLY MET'MAP TEAM :

Programmation & Développement : Alexandra Zaïnal
Conception & Développement : Baudouin d'Aumeries
Co-Programmation & Développement : Marc-Olivier Méhu
Soutien technique & logistique : Manuel Goepfert

Contact : metmap@orbifly.com




SOURCES & CREDITS :

   NOAA